TimeMST,TemperatureF,Dew PointF,Humidity,Sea Level PressureIn,VisibilityMPH,Wind Direction,Wind SpeedMPH,Gust SpeedMPH,PrecipitationIn,Events,Conditions,WindDirDegrees,DateUTC
12:45 AM,30.2,28.4,93,29.61,2.5,ESE,10.4,-,N/A,,Scattered Clouds,110,2013-02-24 07:45:00
12:53 AM,30.0,28.9,96,29.61,2.5,East,10.4,-,N/A,,Mostly Cloudy,100,2013-02-24 07:53:00
1:04 AM,28.4,28.4,100,29.60,4.0,ESE,9.2,-,N/A,,Mostly Cloudy,110,2013-02-24 08:04:00
1:20 AM,28.4,28.4,100,29.61,2.0,ESE,10.4,-,N/A,,Mostly Cloudy,110,2013-02-24 08:20:00
1:39 AM,28.4,28.4,100,29.61,1.8,East,8.1,-,N/A,,Overcast,100,2013-02-24 08:39:00
1:53 AM,28.9,28.9,100,29.61,1.2,ESE,8.1,-,N/A,,Overcast,110,2013-02-24 08:53:00
2:03 AM,28.4,28.4,100,29.61,1.0,ESE,10.4,-,N/A,,Overcast,120,2013-02-24 09:03:00
2:12 AM,28.4,28.4,100,29.61,0.8,ESE,8.1,-,N/A,,Overcast,110,2013-02-24 09:12:00
2:53 AM,28.9,28.0,96,29.60,0.5,North,6.9,-,N/A,Fog,Light Freezing Fog,350,2013-02-24 09:53:00
3:05 AM,28.4,28.4,100,29.63,1.2,NNW,5.8,-,N/A,,Overcast,340,2013-02-24 10:05:00
3:14 AM,30.2,28.4,93,29.63,1.8,North,6.9,-,N/A,,Overcast,350,2013-02-24 10:14:00
3:33 AM,30.2,28.4,93,29.62,1.0,North,9.2,-,N/A,,Overcast,350,2013-02-24 10:33:00
3:39 AM,28.4,28.4,100,29.62,1.5,NNE,5.8,-,N/A,,Overcast,20,2013-02-24 10:39:00
3:48 AM,28.4,28.4,100,29.61,2.5,NNE,10.4,-,N/A,,Overcast,20,2013-02-24 10:48:00
3:53 AM,28.9,28.9,100,29.61,3.0,North,10.4,-,N/A,,Overcast,10,2013-02-24 10:53:00
5:31 AM,30.2,28.4,93,29.64,6.0,North,10.4,-,N/A,,Overcast,360,2013-02-24 12:31:00
5:53 AM,30.0,28.9,96,29.67,7.0,North,9.2,-,N/A,,Overcast,350,2013-02-24 12:53:00
6:48 AM,30.2,28.4,93,29.68,6.0,North,5.8,-,N/A,,Overcast,10,2013-02-24 13:48:00
6:53 AM,30.9,28.0,89,29.70,6.0,North,8.1,-,N/A,,Overcast,10,2013-02-24 13:53:00
7:53 AM,30.0,28.0,92,29.74,5.0,NNE,10.4,-,N/A,,Overcast,30,2013-02-24 14:53:00
8:53 AM,30.0,27.0,88,29.76,6.0,NNE,9.2,-,N/A,,Overcast,30,2013-02-24 15:53:00
9:40 AM,30.2,26.6,86,29.74,8.0,North,5.8,-,N/A,,Overcast,10,2013-02-24 16:40:00
9:53 AM,30.9,27.0,85,29.78,8.0,NNE,8.1,-,N/A,,Overcast,30,2013-02-24 16:53:00
10:53 AM,32.0,27.0,82,29.79,8.0,North,9.2,-,N/A,,Overcast,10,2013-02-24 17:53:00
11:53 AM,33.1,27.0,78,29.78,10.0,North,12.7,-,N/A,,Overcast,360,2013-02-24 18:53:00
12:42 PM,33.8,26.6,75,29.74,9.0,North,16.1,-,N/A,,Overcast,10,2013-02-24 19:42:00
12:53 PM,32.0,27.0,82,29.78,8.0,North,16.1,-,N/A,,Overcast,350,2013-02-24 19:53:00
1:53 PM,33.1,28.0,82,29.78,7.0,NNE,16.1,20.7,N/A,,Overcast,20,2013-02-24 20:53:00
2:49 PM,33.8,28.4,81,29.77,6.0,NNE,19.6,-,N/A,,Haze,30,2013-02-24 21:49:00
2:53 PM,33.1,28.0,82,29.81,6.0,NNE,16.1,-,N/A,,Haze,30,2013-02-24 21:53:00
3:17 PM,33.8,28.4,81,29.79,7.0,North,19.6,25.3,N/A,,Overcast,10,2013-02-24 22:17:00
3:42 PM,33.8,26.6,75,29.81,7.0,NNE,21.9,26.5,N/A,,Overcast,20,2013-02-24 22:42:00
3:53 PM,33.1,27.0,78,29.86,7.0,North,17.3,28.8,N/A,,Overcast,10,2013-02-24 22:53:00
4:25 PM,32.0,26.6,80,29.85,2.5,North,19.6,31.1,0.00,Snow,Light Snow,10,2013-02-24 23:25:00
4:53 PM,30.9,27.0,85,29.92,4.0,NNE,18.4,-,0.00,Snow,Light Snow,20,2013-02-24 23:53:00
5:53 PM,30.9,27.0,85,29.94,4.0,North,16.1,-,0.00,Snow,Light Snow,10,2013-02-25 00:53:00
6:23 PM,30.2,26.6,86,29.91,8.0,North,16.1,-,0.00,,Overcast,360,2013-02-25 01:23:00
6:51 PM,30.2,26.6,86,29.92,10.0,North,18.4,-,0.00,,Overcast,10,2013-02-25 01:51:00
6:53 PM,30.9,26.1,82,29.97,10.0,North,19.6,24.2,0.00,,Overcast,10,2013-02-25 01:53:00
7:17 PM,30.2,26.6,86,29.95,9.0,North,13.8,21.9,N/A,,Overcast,360,2013-02-25 02:17:00
7:53 PM,30.0,25.0,82,29.98,10.0,North,21.9,26.5,N/A,,Overcast,10,2013-02-25 02:53:00
8:53 PM,28.9,24.1,82,30.03,10.0,NNE,12.7,-,N/A,,Overcast,20,2013-02-25 03:53:00
9:53 PM,28.9,24.1,82,30.04,8.0,NNE,13.8,-,0.00,Snow,Light Snow,20,2013-02-25 04:53:00
10:53 PM,28.0,23.0,81,30.01,9.0,North,16.1,-,0.00,,Overcast,10,2013-02-25 05:53:00
11:53 PM,28.9,24.1,82,30.05,10.0,NNE,8.1,-,N/A,,Mostly Cloudy,20,2013-02-25 06:53:00